Time,TemperatureF,DewpointF,PressureIn,WindDirection,WindDirectionDegrees,WindSpeedMPH,WindSpeedGustMPH,Humidity,HourlyPrecipIn,Conditions,Clouds,dailyrainin,SoftwareType,DateUTC
2013-01-28 00:08:00,31.9,23.0,30.51,NNW,343,0.0,1.0,71,0.00,,,0.00,weatherlink.com 1.10,2013-01-28 05:08:00,
2013-01-28 00:23:00,32.1,24.0,30.50,NNW,343,0.0,1.0,71,0.00,,,0.00,weatherlink.com 1.10,2013-01-28 05:23:00,
2013-01-28 00:38:00,32.3,24.0,30.50,NNW,343,0.0,1.0,72,0.00,,,0.00,weatherlink.com 1.10,2013-01-28 05:38:00,
2013-01-28 00:53:00,32.5,25.0,30.49,NNW,343,0.0,1.0,73,0.00,,,0.00,weatherlink.com 1.10,2013-01-28 05:53:00,
2013-01-28 01:08:00,32.6,25.0,30.49,NNW,343,0.0,1.0,73,0.00,,,0.00,weatherlink.com 1.10,2013-01-28 06:08:00,
2013-01-28 01:23:00,32.6,24.0,30.48,NNW,345,0.0,1.0,72,0.00,,,0.00,weatherlink.com 1.10,2013-01-28 06:23:00,
2013-01-28 01:38:00,32.6,25.0,30.48,NNW,345,0.0,1.0,73,0.00,,,0.00,weatherlink.com 1.10,2013-01-28 06:38:00,
2013-01-28 01:53:00,32.7,25.0,30.47,NNW,345,0.0,0.0,73,0.00,,,0.00,weatherlink.com 1.10,2013-01-28 06:53:00,
2013-01-28 02:09:00,32.8,25.0,30.47,NNW,347,0.0,1.0,74,0.00,,,0.00,weatherlink.com 1.10,2013-01-28 07:09:00,
2013-01-28 02:23:00,32.9,25.0,30.46,NNW,347,0.0,2.0,74,0.00,,,0.00,weatherlink.com 1.10,2013-01-28 07:23:00,
2013-01-28 02:39:00,33.0,26.0,30.46,NNW,347,0.0,2.0,74,0.00,,,0.00,weatherlink.com 1.10,2013-01-28 07:39:00,
2013-01-28 02:54:00,33.2,25.0,30.46,NNW,347,0.0,1.0,73,0.00,,,0.00,weatherlink.com 1.10,2013-01-28 07:54:00,
2013-01-28 03:09:00,33.4,26.0,30.45,SW,235,0.0,2.0,73,0.00,,,0.00,weatherlink.com 1.10,2013-01-28 08:09:00,
2013-01-28 03:24:00,33.5,25.0,30.44,SW,235,1.0,1.0,72,0.00,,,0.00,weatherlink.com 1.10,2013-01-28 08:24:00,
2013-01-28 03:39:00,33.6,26.0,30.43,SW,235,0.0,2.0,73,0.00,,,0.00,weatherlink.com 1.10,2013-01-28 08:39:00,
2013-01-28 03:54:00,33.6,26.0,30.44,SW,235,0.0,0.0,73,0.00,,,0.00,weatherlink.com 1.10,2013-01-28 08:54:00,
2013-01-28 04:09:00,33.7,26.0,30.43,SW,236,0.0,2.0,73,0.00,,,0.00,weatherlink.com 1.10,2013-01-28 09:09:00,
2013-01-28 04:24:00,33.7,26.0,30.42,SW,236,0.0,2.0,73,0.00,,,0.00,weatherlink.com 1.10,2013-01-28 09:24:00,
2013-01-28 04:39:00,33.8,26.0,30.42,SW,221,0.0,2.0,73,0.00,,,0.00,weatherlink.com 1.10,2013-01-28 09:39:00,
2013-01-28 04:54:00,33.8,26.0,30.41,SW,221,0.0,1.0,74,0.00,,,0.00,weatherlink.com 1.10,2013-01-28 09:54:00,
2013-01-28 05:09:00,33.8,27.0,30.41,SSW,193,0.0,1.0,77,0.00,,,0.00,weatherlink.com 1.10,2013-01-28 10:09:00,
2013-01-28 05:24:00,33.8,28.0,30.41,SSW,208,0.0,2.0,78,0.00,,,0.00,weatherlink.com 1.10,2013-01-28 10:24:00,
2013-01-28 05:39:00,33.8,28.0,30.41,SSW,209,0.0,2.0,79,0.00,,,0.00,weatherlink.com 1.10,2013-01-28 10:39:00,
2013-01-28 05:54:00,33.8,28.0,30.40,SW,217,0.0,3.0,80,0.00,,,0.00,weatherlink.com 1.10,2013-01-28 10:54:00,
2013-01-28 06:09:00,33.8,29.0,30.40,WSW,238,0.0,2.0,82,0.00,,,0.00,weatherlink.com 1.10,2013-01-28 11:09:00,
2013-01-28 06:24:00,33.7,29.0,30.41,SW,221,0.0,2.0,83,0.00,,,0.00,weatherlink.com 1.10,2013-01-28 11:24:00,
2013-01-28 06:39:00,33.7,29.0,30.41,SW,233,2.0,2.0,84,0.00,,,0.00,weatherlink.com 1.10,2013-01-28 11:39:00,
2013-01-28 06:54:00,33.5,30.0,30.41,SW,222,0.0,3.0,85,0.00,,,0.00,weatherlink.com 1.10,2013-01-28 11:54:00,
2013-01-28 07:09:00,33.5,30.0,30.41,SW,215,1.0,3.0,86,0.00,,,0.00,weatherlink.com 1.10,2013-01-28 12:09:00,
2013-01-28 07:24:00,33.4,30.0,30.40,SW,215,1.0,3.0,87,0.00,,,0.00,weatherlink.com 1.10,2013-01-28 12:24:00,
2013-01-28 07:39:00,33.4,30.0,30.41,WSW,256,0.0,2.0,88,0.00,,,0.00,weatherlink.com 1.10,2013-01-28 12:39:00,
2013-01-28 07:54:00,33.4,31.0,30.39,SW,225,0.0,2.0,89,0.00,,,0.00,weatherlink.com 1.10,2013-01-28 12:54:00,
2013-01-28 08:09:00,33.4,31.0,30.39,SSW,213,1.0,2.0,90,0.00,,,0.00,weatherlink.com 1.10,2013-01-28 13:09:00,
2013-01-28 08:24:00,33.5,31.0,30.39,WSW,256,0.0,4.0,90,0.00,,,0.00,weatherlink.com 1.10,2013-01-28 13:24:00,
2013-01-28 08:39:00,33.6,31.0,30.38,SW,228,1.0,2.0,90,0.00,,,0.00,weatherlink.com 1.10,2013-01-28 13:39:00,
2013-01-28 08:54:00,33.7,31.0,30.38,SW,230,0.0,2.0,90,0.00,,,0.00,weatherlink.com 1.10,2013-01-28 13:54:00,
2013-01-28 09:09:00,33.8,32.0,30.37,SSW,211,0.0,6.0,91,0.00,,,0.00,weatherlink.com 1.10,2013-01-28 14:09:00,
2013-01-28 09:24:00,34.0,32.0,30.36,SW,228,0.0,2.0,91,0.00,,,0.00,weatherlink.com 1.10,2013-01-28 14:24:00,
2013-01-28 09:39:00,34.1,32.0,30.36,SSW,207,1.0,3.0,91,0.00,,,0.00,weatherlink.com 1.10,2013-01-28 14:39:00,
2013-01-28 09:54:00,34.2,32.0,30.35,SW,215,1.0,3.0,91,0.06,,,0.06,weatherlink.com 1.10,2013-01-28 14:54:00,
2013-01-28 10:09:00,34.3,32.0,30.35,SSW,211,1.0,4.0,91,0.07,,,0.07,weatherlink.com 1.10,2013-01-28 15:09:00,
2013-01-28 10:24:00,34.5,33.0,30.34,SSW,207,0.0,3.0,92,0.07,,,0.07,weatherlink.com 1.10,2013-01-28 15:24:00,
2013-01-28 10:39:00,34.6,33.0,30.34,WSW,257,1.0,4.0,92,0.07,,,0.07,weatherlink.com 1.10,2013-01-28 15:39:00,
2013-01-28 10:54:00,34.7,33.0,30.32,West,261,0.0,3.0,92,0.02,,,0.08,weatherlink.com 1.10,2013-01-28 15:54:00,
2013-01-28 11:09:00,34.9,33.0,30.32,West,269,0.0,4.0,92,0.01,,,0.08,weatherlink.com 1.10,2013-01-28 16:09:00,
2013-01-28 11:24:00,35.3,33.0,30.30,SSW,205,1.0,4.0,92,0.02,,,0.09,weatherlink.com 1.10,2013-01-28 16:24:00,
2013-01-28 11:39:00,35.9,34.0,30.30,West,281,1.0,4.0,92,0.02,,,0.09,weatherlink.com 1.10,2013-01-28 16:39:00,
2013-01-28 11:54:00,36.2,34.0,30.28,West,276,0.0,5.0,92,0.01,,,0.09,weatherlink.com 1.10,2013-01-28 16:54:00,
2013-01-28 12:09:00,36.5,34.0,30.26,SW,223,1.0,3.0,91,0.01,,,0.09,weatherlink.com 1.10,2013-01-28 17:09:00,
2013-01-28 12:24:00,37.0,35.0,30.23,SSW,205,1.0,4.0,91,0.00,,,0.09,weatherlink.com 1.10,2013-01-28 17:24:00,
2013-01-28 12:39:00,37.6,35.0,30.23,West,263,1.0,4.0,90,0.01,,,0.10,weatherlink.com 1.10,2013-01-28 17:39:00,
2013-01-28 12:54:00,38.0,35.0,30.23,SSW,212,0.0,5.0,89,0.01,,,0.10,weatherlink.com 1.10,2013-01-28 17:54:00,
2013-01-28 13:09:00,38.2,35.0,30.21,WSW,249,0.0,5.0,89,0.01,,,0.10,weatherlink.com 1.10,2013-01-28 18:09:00,
2013-01-28 13:24:00,38.6,36.0,30.19,SSW,205,0.0,3.0,89,0.01,,,0.10,weatherlink.com 1.10,2013-01-28 18:24:00,
2013-01-28 13:40:00,39.0,36.0,30.19,SW,225,2.0,4.0,88,0.00,,,0.10,weatherlink.com 1.10,2013-01-28 18:40:00,
2013-01-28 13:55:00,39.3,36.0,30.18,SW,233,3.0,4.0,88,0.00,,,0.10,weatherlink.com 1.10,2013-01-28 18:55:00,
2013-01-28 14:10:00,39.9,36.0,30.16,SSW,207,0.0,4.0,87,0.00,,,0.10,weatherlink.com 1.10,2013-01-28 19:10:00,
2013-01-28 14:25:00,40.2,37.0,30.16,SW,217,1.0,4.0,87,0.00,,,0.10,weatherlink.com 1.10,2013-01-28 19:25:00,
2013-01-28 14:40:00,41.1,37.0,30.14,SSW,213,1.0,4.0,86,0.00,,,0.10,weatherlink.com 1.10,2013-01-28 19:40:00,
2013-01-28 14:55:00,42.0,38.0,30.14,WSW,253,1.0,6.0,85,0.00,,,0.10,weatherlink.com 1.10,2013-01-28 19:55:00,
2013-01-28 15:10:00,42.3,38.0,30.13,WSW,247,1.0,3.0,84,0.00,,,0.10,weatherlink.com 1.10,2013-01-28 20:10:00,
2013-01-28 15:25:00,42.9,38.0,30.13,WNW,296,0.0,4.0,84,0.00,,,0.10,weatherlink.com 1.10,2013-01-28 20:25:00,
2013-01-28 15:40:00,43.2,38.0,30.13,WSW,246,1.0,3.0,83,0.00,,,0.10,weatherlink.com 1.10,2013-01-28 20:40:00,
2013-01-28 15:55:00,43.3,39.0,30.13,WSW,244,1.0,3.0,83,0.00,,,0.10,weatherlink.com 1.10,2013-01-28 20:55:00,
2013-01-28 16:10:00,43.4,39.0,30.12,WSW,239,1.0,2.0,83,0.00,,,0.10,weatherlink.com 1.10,2013-01-28 21:10:00,
2013-01-28 16:25:00,43.5,39.0,30.13,SW,231,0.0,3.0,84,0.00,,,0.10,weatherlink.com 1.10,2013-01-28 21:25:00,
2013-01-28 16:41:00,43.6,39.0,30.12,WSW,246,1.0,2.0,84,0.00,,,0.10,weatherlink.com 1.10,2013-01-28 21:41:00,
2013-01-28 16:55:00,43.6,39.0,30.12,WSW,246,0.0,2.0,84,0.00,,,0.10,weatherlink.com 1.10,2013-01-28 21:55:00,
2013-01-28 17:10:00,43.7,39.0,30.11,WSW,246,0.0,1.0,84,0.00,,,0.10,weatherlink.com 1.10,2013-01-28 22:10:00,
2013-01-28 17:40:00,43.6,40.0,30.11,WSW,246,0.0,0.0,86,0.00,,,0.10,weatherlink.com 1.10,2013-01-28 22:40:00,
2013-01-28 17:55:00,43.5,40.0,30.11,WSW,246,0.0,0.0,86,0.00,,,0.10,weatherlink.com 1.10,2013-01-28 22:55:00,
2013-01-28 18:10:00,43.3,40.0,30.11,WSW,246,0.0,0.0,87,0.00,,,0.10,weatherlink.com 1.10,2013-01-28 23:10:00,
2013-01-28 18:25:00,43.2,40.0,30.11,WSW,246,0.0,0.0,87,0.00,,,0.10,weatherlink.com 1.10,2013-01-28 23:25:00,
2013-01-28 18:40:00,43.1,40.0,30.10,WSW,246,0.0,0.0,88,0.00,,,0.10,weatherlink.com 1.10,2013-01-28 23:40:00,
2013-01-28 18:55:00,43.1,40.0,30.09,WSW,246,0.0,0.0,89,0.00,,,0.10,weatherlink.com 1.10,2013-01-28 23:55:00,
2013-01-28 19:10:00,42.8,40.0,30.09,WSW,246,0.0,0.0,89,0.00,,,0.10,weatherlink.com 1.10,2013-01-29 00:10:00,
2013-01-28 19:25:00,42.5,40.0,30.09,WSW,246,0.0,1.0,89,0.00,,,0.10,weatherlink.com 1.10,2013-01-29 00:25:00,
2013-01-28 19:55:00,42.0,39.0,30.09,WSW,246,0.0,0.0,89,0.00,,,0.10,weatherlink.com 1.10,2013-01-29 00:55:00,
2013-01-28 20:10:00,41.8,39.0,30.08,WSW,246,0.0,0.0,89,0.00,,,0.10,weatherlink.com 1.10,2013-01-29 01:10:00,
2013-01-28 20:25:00,41.4,39.0,30.08,WSW,246,0.0,1.0,90,0.00,,,0.10,weatherlink.com 1.10,2013-01-29 01:25:00,
2013-01-28 20:40:00,41.4,39.0,30.07,WSW,246,0.0,2.0,91,0.00,,,0.10,weatherlink.com 1.10,2013-01-29 01:40:00,
2013-01-28 20:55:00,41.5,39.0,30.07,WSW,246,0.0,0.0,90,0.00,,,0.10,weatherlink.com 1.10,2013-01-29 01:55:00,
2013-01-28 21:10:00,41.5,39.0,30.07,WSW,246,0.0,0.0,90,0.00,,,0.10,weatherlink.com 1.10,2013-01-29 02:10:00,
2013-01-28 21:25:00,41.5,39.0,30.07,WSW,246,0.0,1.0,91,0.00,,,0.10,weatherlink.com 1.10,2013-01-29 02:25:00,
2013-01-28 21:44:00,41.6,39.0,30.07,WSW,246,0.0,0.0,91,0.00,,,0.10,weatherlink.com 1.10,2013-01-29 02:44:00,
2013-01-28 21:56:00,42.1,40.0,30.07,WSW,246,1.0,1.0,91,0.00,,,0.10,weatherlink.com 1.10,2013-01-29 02:56:00,
2013-01-28 22:11:00,43.5,41.0,30.07,WSW,246,0.0,1.0,90,0.00,,,0.10,weatherlink.com 1.10,2013-01-29 03:11:00,
2013-01-28 22:26:00,44.9,41.0,30.05,WSW,246,0.0,1.0,87,0.00,,,0.10,weatherlink.com 1.10,2013-01-29 03:26:00,
2013-01-28 22:41:00,45.5,42.0,30.06,WSW,246,2.0,2.0,86,0.00,,,0.10,weatherlink.com 1.10,2013-01-29 03:41:00,
2013-01-28 22:56:00,46.4,42.0,30.06,SSW,207,2.0,2.0,85,0.00,,,0.10,weatherlink.com 1.10,2013-01-29 03:56:00,
2013-01-28 23:11:00,46.8,42.0,30.06,SSE,155,0.0,1.0,84,0.00,,,0.10,weatherlink.com 1.10,2013-01-29 04:11:00,
2013-01-28 23:26:00,47.1,43.0,30.06,South,176,0.0,2.0,84,0.00,,,0.10,weatherlink.com 1.10,2013-01-29 04:26:00,
2013-01-28 23:41:00,47.4,43.0,30.06,South,176,1.0,2.0,84,0.00,,,0.10,weatherlink.com 1.10,2013-01-29 04:41:00,
2013-01-28 23:56:00,47.9,43.0,30.06,SSW,207,1.0,3.0,84,0.00,,,0.10,weatherlink.com 1.10,2013-01-29 04:56:00,